Location: Nairn
(57.5833°N, 3.8667°W)
Time: 02:46:39
(UTC+00:00)

Vanguard 1 Rocket - Pass Details

Date: 05 December 2020
Orbit: 655 x 4221 km, 34.3° (Epoch: 20 January)

Event Time Altitude Azimuth Distance (km) Brightness Sun altitude
Exits shadow 05:39:43 17° 247° (WSW) 6,209 11.1 -22.3°
Maximum altitude 05:48:26 23° 220° (SW) 5,171 10.9 -21.1°
Drops below altitude 10° 05:59:23 10° 176° (S) 5,071 11.4 -19.7°
Sets 06:03:44 0° 162° (SSE) 5,547 11.8 -19.1°
